Weather in Loginovo

Russia / Sverdlovsk Oblast     56°37′32″N   61°18′11″E
temp.,
°C
wind,
m/s
gust,
m/s
humid.,
%
clouds,
%
prec.,
mm/h
press.,
hPa
HPBL,
m
5 august, thu
thu523:00+20se4108431 0.0 1012217
02:00+18ssw23925 0.6 101056
05:00+17wnw2290100 0.6 101029
08:00+22sse017562 0.0 1009119
11:00+29ssw234796 0.0 1008711
14:00+32nw023687 0.0 10071532
17:00+29nnw235020 0.0 100663
20:00+23nne227095 0.4 100751
6 august, fri
fri623:00+19ssw3789100 0.8 1007176
02:00+17nw499728 1.3 1007348
05:00+15nw489781 1.4 1008408
08:00+15wnw4790100 0.0 1008599
11:00+18nw4781100 0.0 1009620
14:00+20nnw577873 0.3 1009905
17:00+19nnw478143 1.8 1010886
20:00+17nw4108640 1.1 1010416
7 august, sat
sat723:00+15nw41083100 1.1 1011323
02:00+15nw41084100 0.0 1011453
05:00+13nw39880 0.0 1012275
08:00+16nw49650 0.0 1012525
11:00+20nw57450 0.0 10121396
14:00+22nw57432 0.0 10111830
17:00+22nw674319 0.0 10112230
20:00+17nnw5116643 0.0 1013683
8 august, sun
sun823:00+14nw5117614 0.0 1013558
02:00+12nw410845 0.0 1014464
05:00+10nw411920 0.0 1014392
08:00+13nw5117999 0.0 1014479
11:00+19nnw57585 0.0 1014918
14:00+22nnw565151 0.0 10141312
17:00+22nnw5656100 0.0 10151450
20:00+18nnw48740 0.0 1016628
9 august, mon
mon923:00+14nw39920 0.0 1017319
02:00+14nw388999 0.0 1017328
05:00+15nnw3885100 0.0 1017403
08:00+16nw3881100 0.0 1018428
11:00+20nnw346354 0.0 10181089
14:00+23nnw345233 0.0 10171499
17:00+23nnw3450100 0.0 10171432
20:00+18nw2466100 0.0 101888